Flag for Kuwait Weather past 2 weeks in Kuwait City, Kuwait

Now
77 °F

Clear.


Feels Like: 77 °F
Forecast: 84 / 108 °F
Wind: 6 mph from Southwest

Location: Kuwait International Airport

Current Time: Sep 15, 2014 at 6:03:25 AM

Latest Report: Sep 15, 2014 at 5:00 AM


Visibility: 10 mi

Pressure: 29.65 "Hg

Humidity: 26%

Dew point: 39 °F

Location of Kuwait CityLocation

Historic Weather in Kuwait City — Graph

°F

Kuwait City temperature yesterday

Maximum temperature yesterday: 109 °F (at 3:00 PM)
Minimum temperature yesterday: 79 °F (at 5:00 AM)
Average temperature yesterday: 97 °F

Past Weeks' High & Low Weather Summary

 TemperatureHumidityPressure
High117 °F (Sep 4, 2:00 PM)71% (Aug 31, 7:00 AM)29.74 "Hg (Aug 31, 7:00 AM)
Low77 °F (Sep 15, 5:00 AM)7% (Sep 4, 2:00 PM)29.47 "Hg (Sep 1, 3:00 PM)
Average99 °F21%29.61 "Hg
* Reported Aug 31 7:00 AM — Sep 15 5:00 AM, Kuwait City, Weather by CustomWeather, © 2014

Note: Actual official high and low records may vary slightly from our data, if they occured in-between our weather recording intervals... More about our weather records

Advertising

Kuwait City weather history for previous 24 hours

 ConditionsComfort  
Time TempWeatherWind HumidityBarometerVisibility
5:00 AM
Sep 15
77 °FClear.6 mph26%29.65 "Hg10 mi
4:00 AM81 °FClear.3 mph24%29.62 "Hg5 mi
3:00 AM81 °FClear.3 mph24%29.62 "Hg10 mi
2:00 AM82 °FClear.3 mph23%29.62 "Hg10 mi
1:00 AM88 °FClear.5 mph21%29.62 "Hg10 mi
12:00 AM86 °FClear.3 mph20%29.65 "Hg10 mi
11:00 PM
Sep 14
86 °FClear.6 mph20%29.65 "Hg10 mi
10:00 PM90 °FClear.No wind18%29.65 "Hg10 mi
9:00 PM97 °FClear.7 mph16%29.65 "Hg10 mi
8:00 PM97 °FClear.6 mph16%29.65 "Hg10 mi
7:00 PM102 °FClear.9 mph13%29.62 "Hg10 mi
6:00 PM104 °FClear.10 mph12%29.62 "Hg10 mi
5:00 PM108 °FSunny.16 mph11%29.62 "Hg10 mi
4:00 PM108 °FSunny.13 mph13%29.62 "Hg10 mi
3:00 PM109 °FSunny.13 mph12%29.62 "Hg10 mi
2:00 PM108 °FSunny.13 mph13%29.62 "Hg10 mi
1:00 PM108 °FSunny.10 mph13%29.65 "Hg10 mi
12:00 PM106 °FSunny.8 mph13%29.68 "Hg10 mi
11:00 AM104 °FSunny.8 mph13%29.68 "Hg10 mi
10:00 AM102 °FSunny.10 mph16%29.71 "Hg10 mi
9:00 AM100 °FSunny.9 mph20%29.71 "Hg10 mi
8:00 AM97 °FSunny.6 mph23%29.71 "Hg10 mi
7:00 AM88 °FSunny.No wind25%29.68 "Hg4 mi
6:00 AM81 °FSunny.3 mph28%29.68 "Hg5 mi
Weather by CustomWeather, © 2014

See weather overviewHow to use our weather pages